Overview Statistics Trail Chart Weather Telemetry Raw packets
 

This is the latest recevied weather packets stored in our database for station/object KD4EED. If no packets are shown the sender has not sent any weather packets the latest 10 day(s).

<< 3 4 5 6 7 8 9 >>
Time Temp. Humidity Pressure Rain* Wind** Luminosity Snow
1788658658 27.78° C 37% 1009.6 hPa - - 41 W/m² -
1788658357 27.78° C 39% 1009.6 hPa - - 46 W/m² -
1788658053 27.78° C 40% 1009.6 hPa - - 57 W/m² -
1788657748 27.78° C 42% 1009.6 hPa - - 70 W/m² -
1788657443 28.33° C 41% 1009.7 hPa - - 77 W/m² -
1788657143 28.33° C 41% 1009.6 hPa - - 84 W/m² -
1788656838 28.89° C 39% 1009.5 hPa - - 62 W/m² -
1788656563 29.44° C 37% 1009.4 hPa - - 67 W/m² -
1788656229 29.44° C 38% 1009.7 hPa - - 75 W/m² -
1788655929 30° C 37% 1009.5 hPa - - 77 W/m² -
1788655627 30.56° C 36% 1009.5 hPa - - 83 W/m² -
1788655323 31.11° C 36% 1009.5 hPa - - 82 W/m² -
1788655018 31.67° C 35% 1009.5 hPa - - 91 W/m² -
1788654714 31.67° C 37% 1009.5 hPa - - 159 W/m² -
1788654414 31.11° C 38% 1009.4 hPa - - 184 W/m² -
1788654108 30.56° C 39% 1009.6 hPa - - 203 W/m² -
1788653804 30.56° C 41% 1009.4 hPa - - 171 W/m² -
1788653503 31.11° C 41% 1009.4 hPa - - 209 W/m² -
1788653199 31.11° C 39% 1009.4 hPa - - 217 W/m² -
1788652895 31.11° C 40% 1009.5 hPa - - 127 W/m² -
1788652593 31.11° C 41% 1009.5 hPa - - 243 W/m² -
1788652289 31.11° C 41% 1009.7 hPa - - 259 W/m² -
1788651984 31.11° C 40% 1009.7 hPa - - 198 W/m² -
1788651680 31.11° C 42% 1009.4 hPa - - 314 W/m² -
1788651380 31.11° C 42% 1009.5 hPa - - 123 W/m² -

* Rain since midnight (hover to see other rain measurements)
** Current wind speed in m/s (hover to see current wind gust speed)